This demonstration page uses our WeatherBlox Daily Observations layout. Learn more.

Hourly Observations for June 14, 2016

Temp ( °F °C ) Dew Point ( °F °C ) Humidity (%) Winds ( mph kmh ) Pressure ( in mb ) Visibility ( mi km ) Precip ( " mm )
12:15 am 00:15 Partly Cloudy 73 23 66 19.1 79 79 SE 7 11 29.71 1006 10 16.0934 0 0
12:35 am 00:35 Clear 73 23 67 19.3 80 80 ESE 5 7 29.68 1005 10 16.0934 0 0
12:55 am 00:55 Clear 73 22.5 67 19.2 82 82 SE 3 6 29.68 1005 10 16.0934 0 0
1:15 am 01:15 Clear 71 21.6 66 19.1 86 86 SE 5 7 29.68 1005 10 16.0934 0 0
1:35 am 01:35 Clear 71 21.5 67 19.3 87 87 SSE 3 6 29.68 1005 10 16.0934 0 0
1:50 am 01:50 Clear 71 21.6 67 19.2 86 86 Calm 29.68 1005 10 16.0934 0 0
2:15 am 02:15 Clear 70 21.1 66 19.1 88 88 Calm 29.68 1005 10 16.0934 0 0
2:35 am 02:35 Clear 71 21.6 66 19.1 86 86 SW 3 6 29.68 1005 10 16.0934 0 0
2:55 am 02:55 Clear 72 22 65 18.5 81 81 WSW 6 9 29.68 1005 10 16.0934 0 0
3:15 am 03:15 Clear 73 23 64 17.6 72 72 W 16 26 29.68 1005 10 16.0934 0 0
3:35 am 03:35 Clear 71 21.4 63 17 76 76 NW 16 26 29.68 1005 10 16.0934 0 0
3:55 am 03:55 Clear 68 20 62 16.6 81 81 NW 14 22 29.71 1006 10 16.0934 0 0
4:15 am 04:15 Clear 67 19.4 61 15.9 80 80 N 14 22 29.71 1006 10 16.0934 0 0
4:35 am 04:35 Clear 65 18.6 60 15.5 82 82 N 10 17 29.71 1006 10 16.0934 0 0
4:55 am 04:55 Partly Cloudy 65 18.5 60 15.3 82 82 N 10 17 29.71 1006 10 16.0934 0 0
5:15 am 05:15 Partly Cloudy 64 18 59 15.2 84 84 N 9 15 29.71 1006 10 16.0934 0 0
5:35 am 05:35 Clear 64 17.5 59 15.2 86 86 N 9 15 29.71 1006 10 16.0934 0 0
5:55 am 05:55 Clear 63 17.2 59 15 87 87 N 7 11 29.74 1007 10 16.0934 0 0
6:15 am 06:15 Sunny 63 17 59 15 88 88 NNE 6 9 29.74 1007 10 16.0934 0 0
6:35 am 06:35 Sunny 62 16.7 59 15 90 90 ENE 7 11 29.74 1007 10 16.0934 0 0
6:55 am 06:55 Sunny 63 17.1 59 15.2 89 89 E 12 19 29.74 1007 10 16.0934 0 0
7:15 am 07:15 Sunny 64 17.6 60 15.3 86 86 E 12 19 29.71 1006 10 16.0934 0 0
7:35 am 07:35 Sunny 64 18 60 15.3 84 84 ESE 9 15 29.71 1006 10 16.0934 0 0
7:55 am 07:55 Sunny 65 18.1 60 15.3 84 84 ESE 8 13 29.71 1006 10 16.0934 0 0
8:15 am 08:15 Sunny 66 18.9 60 15.6 81 81 SE 6 9 29.71 1006 10 16.0934 0 0
8:35 am 08:35 Sunny 67 19.7 60 15.5 77 77 S 7 11 29.71 1006 10 16.0934 0 0
8:55 am 08:55 Sunny 69 20.5 61 15.9 75 75 WSW 10 17 29.71 1006 10 16.0934 0 0
9:15 am 09:15 Sunny 70 20.9 61 16 74 74 WSW 10 17 29.71 1006 10 16.0934 0 0
9:35 am 09:35 Sunny 70 21 60 15.8 72 72 WSW 10 17 29.68 1005 10 16.0934 0 0
9:55 am 09:55 Sunny 71 21.6 62 16.5 73 73 WSW 8 13 29.68 1005 10 16.0934 0 0
10:15 am 10:15 Sunny 72 22.3 62 16.6 70 70 W 9 15 29.68 1005 10 16.0934 0 0
10:35 am 10:35 Sunny 73 22.5 62 16.5 69 69 WSW 9 15 29.68 1005 10 16.0934 0 0
10:55 am 10:55 Sunny 74 23.6 62 16.8 66 66 WSW 8 13 29.68 1005 10 16.0934 0 0
11:15 am 11:15 Sunny 76 24.3 61 16 60 60 WSW 8 13 29.68 1005 10 16.0934 0 0
11:35 am 11:35 Sunny 77 25.1 60 15.6 56 56 W 9 15 29.65 1004 10 16.0934 0 0
11:55 am 11:55 Sunny 77 25.2 60 15.4 55 55 W 10 17 29.65 1004 10 16.0934 0 0
12:35 pm 12:35 Sunny 80 26.5 56 13.4 44 44 W 13 20 29.65 1004 10 16.0934 0 0
12:55 pm 12:55 Sunny 81 27.2 55 12.8 41 41 WSW 8 13 29.65 1004 10 16.0934 0 0
1:15 pm 13:15 Sunny 81 27.3 55 12.8 41 41 W 10 17 29.65 1004 10 16.0934 0 0
1:35 pm 13:35 Sunny 82 27.8 54 12.1 38 38 WSW 8 13 29.65 1004 10 16.0934 0 0
1:55 pm 13:55 Sunny 83 28.1 54 12 37 37 SW 12 19 29.65 1004 10 16.0934 0 0
2:15 pm 14:15 Sunny 83 28.2 56 13.3 40 40 W 14 22 29.65 1004 10 16.0934 0 0
2:35 pm 14:35 Sunny 83 28.5 56 13.1 39 39 W 14 22 29.62 1003 10 16.0934 0 0
2:55 pm 14:55 Sunny 84 28.7 54 12.3 36 36 W 10 17 29.62 1003 10 16.0934 0 0
3:15 pm 15:15 Sunny 84 29.1 55 12.7 36 36 SW 13 20 29.59 1002 10 16.0934 0 0
3:35 pm 15:35 Sunny 85 29.5 52 11.3 32 32 WSW 9 15 29.59 1002 10 16.0934 0 0
3:55 pm 15:55 Sunny 86 29.9 52 11 31 31 W 9 15 29.59 1002 10 16.0934 0 0
4:15 pm 16:15 Sunny 86 30.1 50 10 29 29 WSW 14 22 29.59 1002 10 16.0934 0 0
4:35 pm 16:35 Sunny 86 30.2 48 8.9 26 26 WSW 10 17 29.59 1002 10 16.0934 0 0
4:55 pm 16:55 Sunny 87 30.6 48 8.7 26 26 W 14 22 29.59 1002 10 16.0934 0 0
5:15 pm 17:15 Sunny 87 30.7 47 8.2 25 25 WSW 14 22 29.59 1002 10 16.0934 0 0
5:35 pm 17:35 Sunny 87 30.8 45 7.1 23 23 W 10 17 29.59 1002 10 16.0934 0 0
5:55 pm 17:55 Sunny 87 30.7 46 7.7 24 24 W 14 22 29.59 1002 10 16.0934 0 0
6:15 pm 18:15 Sunny 87 30.3 45 7.4 24 24 W 15 24 29.59 1002 10 16.0934 0 0
6:35 pm 18:35 Sunny 86 30.2 45 7.4 24 24 W 14 22 29.59 1002 10 16.0934 0 0
6:55 pm 18:55 Sunny 86 30.2 46 7.7 24 24 W 12 19 29.59 1002 10 16.0934 0 0
7:15 pm 19:15 Sunny 86 30 47 8.4 26 26 WSW 7 11 29.59 1002 10 16.0934 0 0
7:35 pm 19:35 Sunny 85 29.5 46 7.6 25 25 W 12 19 29.59 1002 10 16.0934 0 0
7:55 pm 19:55 Sunny 84 28.9 47 8.6 28 28 W 8 13 29.59 1002 10 16.0934 0 0
8:15 pm 20:15 Sunny 82 27.8 49 9.7 32 32 W 6 9 29.62 1003 10 16.0934 0 0
8:35 pm 20:35 Sunny 80 26.6 52 10.9 37 37 W 6 9 29.65 1004 10 16.0934 0 0
8:55 pm 20:55 Sunny 78 25.6 52 11 40 40 W 5 7 29.65 1004 10 16.0934 0 0
9:15 pm 21:15 Clear 76 24.3 52 11.1 44 44 Calm 29.68 1005 10 16.0934 0 0
9:35 pm 21:35 Clear 74 23.6 54 12.2 49 49 Calm 29.68 1005 10 16.0934 0 0
9:55 pm 21:55 Clear 75 24 53 11.5 46 46 SW 3 6 29.68 1005 10 16.0934 0 0
10:15 pm 22:15 Clear 74 23.6 53 11.6 47 47 Calm 29.68 1005 10 16.0934 0 0
10:35 pm 22:35 Clear 74 23.1 53 11.4 48 48 SW 5 7 29.68 1005 10 16.0934 0 0
10:55 pm 22:55 Clear 73 22.6 52 11.1 48 48 Calm 29.68 1005 10 16.0934 0 0
11:15 pm 23:15 Clear 73 22.5 51 10.8 48 48 SW 3 6 29.68 1005 10 16.0934 0 0
11:35 pm 23:35 Clear 72 22.2 51 10.5 48 48 SSW 6 9 29.68 1005 10 16.0934 0 0
11:55 pm 23:55 Clear 72 22.4 51 10.3 46 46 SW 5 7 29.68 1005 10 16.0934 0 0

Powered by AerisWeather